Time,TemperatureF,DewpointF,PressureIn,WindDirection,WindDirectionDegrees,WindSpeedMPH,WindSpeedGustMPH,Humidity,HourlyPrecipIn,Conditions,Clouds,dailyrainin,SoftwareType,DateUTC
2013-07-22 00:01:00,64.7,63.2,30.00,ESE,108,0.0,0.0,95,0.00,,,0.00,vanprod-2.5,2013-07-22 04:01:00,
2013-07-22 00:06:00,64.9,63.4,30.00,ENE,78,0.0,0.0,95,0.00,,,0.00,vanprod-2.5,2013-07-22 04:06:00,
2013-07-22 00:11:00,64.9,63.4,30.01,ENE,77,0.0,0.0,95,0.00,,,0.00,vanprod-2.5,2013-07-22 04:11:00,
2013-07-22 00:16:00,64.9,63.4,30.01,ENE,77,0.0,0.0,95,0.00,,,0.00,vanprod-2.5,2013-07-22 04:16:00,
2013-07-22 00:21:00,65.0,63.5,30.01,ENE,77,0.0,0.0,95,0.00,,,0.00,vanprod-2.5,2013-07-22 04:21:00,
2013-07-22 00:26:00,65.0,63.5,30.01,ENE,77,0.0,0.0,95,0.00,,,0.00,vanprod-2.5,2013-07-22 04:26:00,
2013-07-22 00:31:00,64.9,63.4,30.01,ENE,77,0.0,1.0,95,0.00,,,0.00,vanprod-2.5,2013-07-22 04:31:00,
2013-07-22 00:36:00,65.0,63.5,30.01,ENE,77,0.0,0.0,95,0.00,,,0.00,vanprod-2.5,2013-07-22 04:36:00,
2013-07-22 00:41:00,65.0,63.2,30.01,ENE,77,0.0,0.0,94,0.00,,,0.00,vanprod-2.5,2013-07-22 04:41:00,
2013-07-22 00:46:00,64.9,63.4,30.01,ENE,77,0.0,0.0,95,0.00,,,0.00,vanprod-2.5,2013-07-22 04:46:00,
2013-07-22 00:51:00,64.9,63.4,30.01,ENE,77,0.0,0.0,95,0.00,,,0.00,vanprod-2.5,2013-07-22 04:51:00,
2013-07-22 00:56:00,65.0,63.5,30.01,ENE,77,0.0,0.0,95,0.00,,,0.00,vanprod-2.5,2013-07-22 04:56:00,
2013-07-22 01:01:00,64.8,63.0,30.00,ENE,77,0.0,0.0,94,0.00,,,0.00,vanprod-2.5,2013-07-22 05:01:00,
2013-07-22 01:06:00,64.7,62.9,30.00,ENE,77,0.0,0.0,94,0.00,,,0.00,vanprod-2.5,2013-07-22 05:06:00,
2013-07-22 01:11:00,64.6,62.8,30.00,ENE,77,0.0,0.0,94,0.00,,,0.00,vanprod-2.5,2013-07-22 05:11:00,
2013-07-22 01:16:00,64.4,62.6,30.00,ENE,77,0.0,0.0,94,0.00,,,0.00,vanprod-2.5,2013-07-22 05:16:00,
2013-07-22 01:21:00,64.4,62.9,30.00,ENE,77,0.0,0.0,95,0.00,,,0.00,vanprod-2.5,2013-07-22 05:21:00,
2013-07-22 01:26:00,64.3,62.8,30.00,ENE,77,0.0,0.0,95,0.00,,,0.00,vanprod-2.5,2013-07-22 05:26:00,
2013-07-22 01:31:00,64.2,62.7,30.00,ENE,77,0.0,0.0,95,0.00,,,0.00,vanprod-2.5,2013-07-22 05:31:00,
2013-07-22 01:36:00,64.2,62.7,30.00,ENE,77,0.0,0.0,95,0.00,,,0.00,vanprod-2.5,2013-07-22 05:36:00,
2013-07-22 01:41:00,64.3,62.8,30.00,ENE,77,0.0,0.0,95,0.00,,,0.00,vanprod-2.5,2013-07-22 05:41:00,
2013-07-22 01:46:00,64.3,62.8,30.00,ENE,77,0.0,0.0,95,0.00,,,0.00,vanprod-2.5,2013-07-22 05:46:00,
2013-07-22 01:51:00,64.2,62.7,30.00,East,80,0.0,1.0,95,0.00,,,0.00,vanprod-2.5,2013-07-22 05:51:00,
2013-07-22 01:56:00,64.3,62.8,29.99,East,91,0.0,0.0,95,0.00,,,0.00,vanprod-2.5,2013-07-22 05:56:00,
2013-07-22 02:01:00,64.1,62.6,30.00,East,91,0.0,0.0,95,0.00,,,0.00,vanprod-2.5,2013-07-22 06:01:00,
2013-07-22 02:06:00,64.0,62.5,30.00,East,91,0.0,0.0,95,0.00,,,0.00,vanprod-2.5,2013-07-22 06:06:00,
2013-07-22 02:11:00,63.9,62.4,30.00,East,91,0.0,0.0,95,0.00,,,0.00,vanprod-2.5,2013-07-22 06:11:00,
2013-07-22 02:16:00,63.7,62.2,30.00,East,91,0.0,0.0,95,0.00,,,0.00,vanprod-2.5,2013-07-22 06:16:00,
2013-07-22 02:21:00,63.6,62.1,30.00,East,91,0.0,0.0,95,0.00,,,0.00,vanprod-2.5,2013-07-22 06:21:00,
2013-07-22 02:26:00,63.4,61.9,30.00,East,91,0.0,1.0,95,0.00,,,0.00,vanprod-2.5,2013-07-22 06:26:00,
2013-07-22 02:31:00,63.4,61.9,30.00,East,91,0.0,0.0,95,0.00,,,0.00,vanprod-2.5,2013-07-22 06:31:00,
2013-07-22 02:36:00,63.4,61.9,30.00,East,91,0.0,0.0,95,0.00,,,0.00,vanprod-2.5,2013-07-22 06:36:00,
2013-07-22 02:41:00,63.3,61.8,30.00,East,91,0.0,0.0,95,0.00,,,0.00,vanprod-2.5,2013-07-22 06:41:00,
2013-07-22 02:46:00,63.5,62.3,30.00,East,91,0.0,0.0,96,0.00,,,0.00,vanprod-2.5,2013-07-22 06:46:00,
2013-07-22 02:51:00,63.6,62.4,30.00,East,90,0.0,0.0,96,0.00,,,0.00,vanprod-2.5,2013-07-22 06:51:00,
2013-07-22 02:56:00,63.7,62.5,30.00,East,91,0.0,0.0,96,0.00,,,0.00,vanprod-2.5,2013-07-22 06:56:00,
2013-07-22 03:01:00,63.8,62.6,29.99,East,90,0.0,0.0,96,0.00,,,0.00,vanprod-2.5,2013-07-22 07:01:00,
2013-07-22 03:06:00,63.9,62.7,30.00,East,90,0.0,0.0,96,0.00,,,0.00,vanprod-2.5,2013-07-22 07:06:00,
2013-07-22 03:11:00,63.9,62.7,30.00,East,91,0.0,0.0,96,0.00,,,0.00,vanprod-2.5,2013-07-22 07:11:00,
2013-07-22 03:16:00,64.1,62.9,30.00,East,90,0.0,1.0,96,0.00,,,0.00,vanprod-2.5,2013-07-22 07:16:00,
2013-07-22 03:21:00,64.1,62.9,30.00,East,90,0.0,0.0,96,0.00,,,0.00,vanprod-2.5,2013-07-22 07:21:00,
2013-07-22 03:26:00,64.0,62.8,30.00,East,89,0.0,0.0,96,0.00,,,0.00,vanprod-2.5,2013-07-22 07:26:00,
2013-07-22 03:31:00,63.9,62.7,30.00,East,89,0.0,0.0,96,0.00,,,0.00,vanprod-2.5,2013-07-22 07:31:00,
2013-07-22 03:36:00,63.8,62.6,30.00,East,89,0.0,0.0,96,0.00,,,0.00,vanprod-2.5,2013-07-22 07:36:00,
2013-07-22 03:41:00,64.0,62.8,30.00,East,89,0.0,0.0,96,0.00,,,0.00,vanprod-2.5,2013-07-22 07:41:00,
2013-07-22 03:46:00,64.2,63.0,30.00,East,90,0.0,0.0,96,0.00,,,0.00,vanprod-2.5,2013-07-22 07:46:00,
2013-07-22 03:51:00,64.2,63.0,30.00,East,90,0.0,0.0,96,0.00,,,0.00,vanprod-2.5,2013-07-22 07:51:00,
2013-07-22 03:56:00,64.1,62.9,30.00,East,90,0.0,0.0,96,0.00,,,0.00,vanprod-2.5,2013-07-22 07:56:00,
2013-07-22 04:01:00,64.1,62.9,30.00,East,90,0.0,1.0,96,0.00,,,0.00,vanprod-2.5,2013-07-22 08:01:00,
2013-07-22 04:06:00,64.2,63.0,30.00,East,98,0.0,0.0,96,0.00,,,0.00,vanprod-2.5,2013-07-22 08:06:00,
2013-07-22 04:11:00,64.1,62.9,30.00,NNW,337,0.0,1.0,96,0.00,,,0.00,vanprod-2.5,2013-07-22 08:11:00,
2013-07-22 04:16:00,64.0,62.8,30.00,NE,39,0.0,0.0,96,0.00,,,0.00,vanprod-2.5,2013-07-22 08:16:00,
2013-07-22 04:21:00,64.0,62.8,30.00,NE,39,1.0,2.0,96,0.00,,,0.00,vanprod-2.5,2013-07-22 08:21:00,
2013-07-22 04:26:00,63.9,62.7,30.00,ENE,69,0.0,0.0,96,0.00,,,0.00,vanprod-2.5,2013-07-22 08:26:00,
2013-07-22 04:31:00,63.7,62.5,30.00,ENE,69,0.0,0.0,96,0.00,,,0.00,vanprod-2.5,2013-07-22 08:31:00,
2013-07-22 04:36:00,63.6,62.4,30.00,ENE,69,0.0,0.0,96,0.00,,,0.00,vanprod-2.5,2013-07-22 08:36:00,
2013-07-22 04:41:00,63.4,62.2,30.00,ENE,69,0.0,0.0,96,0.00,,,0.00,vanprod-2.5,2013-07-22 08:41:00,
2013-07-22 04:46:00,63.3,62.1,30.00,ENE,69,0.0,0.0,96,0.00,,,0.00,vanprod-2.5,2013-07-22 08:46:00,
2013-07-22 04:51:00,63.1,61.9,30.00,ENE,69,0.0,0.0,96,0.00,,,0.00,vanprod-2.5,2013-07-22 08:51:00,
2013-07-22 04:56:00,62.9,61.7,30.00,ENE,69,0.0,0.0,96,0.00,,,0.00,vanprod-2.5,2013-07-22 08:56:00,
2013-07-22 05:01:00,62.9,61.7,30.00,ENE,69,0.0,0.0,96,0.00,,,0.00,vanprod-2.5,2013-07-22 09:01:00,
2013-07-22 05:06:00,62.8,61.6,30.00,ENE,69,0.0,0.0,96,0.00,,,0.00,vanprod-2.5,2013-07-22 09:06:00,
2013-07-22 05:11:00,62.6,61.4,30.00,ENE,69,0.0,0.0,96,0.00,,,0.00,vanprod-2.5,2013-07-22 09:11:00,
2013-07-22 05:16:00,62.4,61.2,30.00,ENE,69,0.0,0.0,96,0.00,,,0.00,vanprod-2.5,2013-07-22 09:16:00,
2013-07-22 05:21:00,62.3,61.1,30.00,ENE,69,0.0,0.0,96,0.00,,,0.00,vanprod-2.5,2013-07-22 09:21:00,
2013-07-22 05:26:00,62.2,61.0,30.00,ENE,69,0.0,0.0,96,0.00,,,0.00,vanprod-2.5,2013-07-22 09:26:00,
2013-07-22 05:31:00,62.2,61.0,30.00,NE,38,0.0,0.0,96,0.00,,,0.00,vanprod-2.5,2013-07-22 09:31:00,
2013-07-22 05:36:00,62.6,61.7,30.01,NNW,338,0.0,0.0,97,0.00,,,0.00,vanprod-2.5,2013-07-22 09:36:00,
2013-07-22 05:41:00,62.5,61.3,30.01,NNE,18,1.0,3.0,96,0.00,,,0.00,vanprod-2.5,2013-07-22 09:41:00,
2013-07-22 05:46:00,62.6,61.4,30.01,North,357,0.0,0.0,96,0.00,,,0.00,vanprod-2.5,2013-07-22 09:46:00,
2013-07-22 05:51:00,62.8,61.9,30.01,NE,39,2.0,2.0,97,0.00,,,0.00,vanprod-2.5,2013-07-22 09:51:00,
2013-07-22 05:56:00,63.1,62.2,30.01,NE,42,1.0,1.0,97,0.00,,,0.00,vanprod-2.5,2013-07-22 09:56:00,
2013-07-22 06:01:00,63.3,62.1,30.01,NE,53,0.0,1.0,96,0.00,,,0.00,vanprod-2.5,2013-07-22 10:01:00,
2013-07-22 06:06:00,63.5,62.3,30.01,ENE,62,0.0,0.0,96,0.00,,,0.00,vanprod-2.5,2013-07-22 10:06:00,
2013-07-22 06:11:00,63.7,62.5,30.01,ENE,61,0.0,0.0,96,0.00,,,0.00,vanprod-2.5,2013-07-22 10:11:00,
2013-07-22 06:16:00,63.9,62.7,30.01,NE,44,0.0,1.0,96,0.00,,,0.00,vanprod-2.5,2013-07-22 10:16:00,
2013-07-22 06:21:00,64.0,62.8,30.01,ENE,73,0.0,0.0,96,0.00,,,0.00,vanprod-2.5,2013-07-22 10:21:00,
2013-07-22 06:26:00,64.1,62.9,30.01,NE,44,0.0,1.0,96,0.00,,,0.00,vanprod-2.5,2013-07-22 10:26:00,
2013-07-22 06:31:00,64.1,62.9,30.02,NE,44,2.0,4.0,96,0.00,,,0.00,vanprod-2.5,2013-07-22 10:31:00,
2013-07-22 06:36:00,64.0,62.8,30.02,ENE,76,0.0,0.0,96,0.00,,,0.00,vanprod-2.5,2013-07-22 10:36:00,
2013-07-22 06:41:00,63.9,62.7,30.02,NE,53,2.0,3.0,96,0.00,,,0.00,vanprod-2.5,2013-07-22 10:41:00,
2013-07-22 06:46:00,63.9,62.7,30.02,NNE,32,1.0,1.0,96,0.00,,,0.00,vanprod-2.5,2013-07-22 10:46:00,
2013-07-22 06:51:00,64.2,63.0,30.02,ENE,63,1.0,2.0,96,0.00,,,0.00,vanprod-2.5,2013-07-22 10:51:00,
2013-07-22 06:56:00,64.6,63.4,30.02,NE,41,2.0,4.0,96,0.00,,,0.00,vanprod-2.5,2013-07-22 10:56:00,
2013-07-22 07:01:00,64.7,63.5,30.02,NNE,33,1.0,2.0,96,0.00,,,0.00,vanprod-2.5,2013-07-22 11:01:00,
2013-07-22 07:02:00,64.7,63.5,30.02,NNE,32,1.0,2.0,96,0.00,,,0.00,vanprod-2.5,2013-07-22 11:02:00,
2013-07-22 07:07:00,65.2,64.0,30.02,North,4,0.0,0.0,96,0.00,,,0.00,vanprod-2.5,2013-07-22 11:07:00,
2013-07-22 07:12:00,65.4,63.9,30.02,North,7,0.0,2.0,95,0.00,,,0.00,vanprod-2.5,2013-07-22 11:12:00,
2013-07-22 07:17:00,65.5,64.0,30.02,East,84,0.0,0.0,95,0.00,,,0.00,vanprod-2.5,2013-07-22 11:17:00,
2013-07-22 07:22:00,65.6,64.1,30.02,NE,51,3.0,3.0,95,0.00,,,0.00,vanprod-2.5,2013-07-22 11:22:00,
2013-07-22 07:27:00,65.5,63.7,30.02,NE,54,2.0,2.0,94,0.00,,,0.00,vanprod-2.5,2013-07-22 11:27:00,
2013-07-22 07:32:00,65.7,64.2,30.02,NE,55,1.0,1.0,95,0.00,,,0.00,vanprod-2.5,2013-07-22 11:32:00,
2013-07-22 07:37:00,65.8,64.0,30.02,NE,43,3.0,3.0,94,0.00,,,0.00,vanprod-2.5,2013-07-22 11:37:00,
2013-07-22 07:42:00,65.8,64.0,30.02,NE,49,3.0,4.0,94,0.00,,,0.00,vanprod-2.5,2013-07-22 11:42:00,
2013-07-22 07:47:00,66.0,64.2,30.02,ENE,63,1.0,3.0,94,0.00,,,0.00,vanprod-2.5,2013-07-22 11:47:00,
2013-07-22 07:52:00,65.9,63.8,30.02,ENE,66,3.0,3.0,93,0.00,,,0.00,vanprod-2.5,2013-07-22 11:52:00,
2013-07-22 07:57:00,66.0,63.9,30.03,ENE,68,1.0,0.0,93,0.00,,,0.00,vanprod-2.5,2013-07-22 11:57:00,
2013-07-22 08:02:00,66.5,64.4,30.03,NE,56,1.0,1.0,93,0.00,,,0.00,vanprod-2.5,2013-07-22 12:02:00,
2013-07-22 08:07:00,67.2,65.1,30.02,ENE,73,1.0,3.0,93,0.00,,,0.00,vanprod-2.5,2013-07-22 12:07:00,
2013-07-22 08:12:00,67.5,64.5,30.02,ENE,62,4.0,4.0,90,0.00,,,0.00,vanprod-2.5,2013-07-22 12:12:00,
2013-07-22 08:17:00,67.6,64.6,30.03,ENE,61,4.0,4.0,90,0.00,,,0.00,vanprod-2.5,2013-07-22 12:17:00,
2013-07-22 08:22:00,68.3,64.9,30.02,ENE,66,2.0,2.0,89,0.00,,,0.00,vanprod-2.5,2013-07-22 12:22:00,
2013-07-22 08:27:00,69.4,65.0,30.02,ENE,64,3.0,3.0,86,0.00,,,0.00,vanprod-2.5,2013-07-22 12:27:00,
2013-07-22 08:32:00,69.5,65.1,30.02,NE,51,3.0,4.0,86,0.00,,,0.00,vanprod-2.5,2013-07-22 12:32:00,
2013-07-22 08:37:00,68.9,64.9,30.02,ENE,57,4.0,4.0,87,0.00,,,0.00,vanprod-2.5,2013-07-22 12:37:00,
2013-07-22 08:42:00,68.7,64.7,30.02,NE,53,3.0,3.0,87,0.00,,,0.00,vanprod-2.5,2013-07-22 12:42:00,
2013-07-22 08:47:00,69.1,65.1,30.02,East,94,3.0,3.0,87,0.00,,,0.00,vanprod-2.5,2013-07-22 12:47:00,
2013-07-22 08:52:00,69.2,64.8,30.02,East,81,5.0,5.0,86,0.00,,,0.00,vanprod-2.5,2013-07-22 12:52:00,
2013-07-22 08:57:00,68.8,64.4,30.02,ENE,69,4.0,4.0,86,0.00,,,0.00,vanprod-2.5,2013-07-22 12:57:00,
2013-07-22 09:02:00,68.5,64.5,30.03,ENE,76,4.0,5.0,87,0.00,,,0.00,vanprod-2.5,2013-07-22 13:02:00,
2013-07-22 09:07:00,68.2,64.2,30.03,ENE,75,4.0,4.0,87,0.00,,,0.00,vanprod-2.5,2013-07-22 13:07:00,
2013-07-22 09:12:00,68.5,64.8,30.03,ENE,77,4.0,7.0,88,0.00,,,0.00,vanprod-2.5,2013-07-22 13:12:00,
2013-07-22 09:17:00,68.1,64.1,30.03,ENE,67,3.0,3.0,87,0.00,,,0.00,vanprod-2.5,2013-07-22 13:17:00,
2013-07-22 09:22:00,68.4,64.4,30.03,NE,45,5.0,5.0,87,0.00,,,0.00,vanprod-2.5,2013-07-22 13:22:00,
2013-07-22 09:27:00,68.6,64.6,30.03,East,91,2.0,4.0,87,0.00,,,0.00,vanprod-2.5,2013-07-22 13:27:00,
2013-07-22 09:32:00,68.6,64.6,30.03,East,86,3.0,4.0,87,0.00,,,0.00,vanprod-2.5,2013-07-22 13:32:00,
2013-07-22 09:37:00,68.6,64.3,30.03,East,86,4.0,6.0,86,0.00,,,0.00,vanprod-2.5,2013-07-22 13:37:00,
2013-07-22 09:42:00,68.6,64.9,30.03,East,80,3.0,4.0,88,0.00,,,0.00,vanprod-2.5,2013-07-22 13:42:00,
2013-07-22 09:47:00,69.3,64.6,30.03,ENE,78,2.0,4.0,85,0.00,,,0.00,vanprod-2.5,2013-07-22 13:47:00,
2013-07-22 09:52:00,69.1,64.4,30.04,East,87,3.0,3.0,85,0.00,,,0.00,vanprod-2.5,2013-07-22 13:52:00,
2013-07-22 09:57:00,68.6,63.9,30.04,East,83,5.0,5.0,85,0.00,,,0.00,vanprod-2.5,2013-07-22 13:57:00,
2013-07-22 10:02:00,68.2,63.5,30.04,East,91,4.0,4.0,85,0.00,,,0.00,vanprod-2.5,2013-07-22 14:02:00,
2013-07-22 10:07:00,68.4,63.7,30.04,East,85,3.0,4.0,85,0.00,,,0.00,vanprod-2.5,2013-07-22 14:07:00,
2013-07-22 10:12:00,68.4,63.7,30.04,East,87,4.0,5.0,85,0.00,,,0.00,vanprod-2.5,2013-07-22 14:12:00,
2013-07-22 10:17:00,68.7,64.0,30.04,ENE,67,2.0,3.0,85,0.00,,,0.00,vanprod-2.5,2013-07-22 14:17:00,
2013-07-22 10:22:00,69.1,64.1,30.04,ENE,73,3.0,3.0,84,0.00,,,0.00,vanprod-2.5,2013-07-22 14:22:00,
2013-07-22 10:27:00,69.4,64.4,30.04,East,93,3.0,3.0,84,0.00,,,0.00,vanprod-2.5,2013-07-22 14:27:00,
2013-07-22 10:32:00,69.3,64.3,30.04,East,95,2.0,2.0,84,0.00,,,0.00,vanprod-2.5,2013-07-22 14:32:00,
2013-07-22 10:37:00,69.5,63.8,30.04,East,86,3.0,6.0,82,0.00,,,0.00,vanprod-2.5,2013-07-22 14:37:00,
2013-07-22 10:42:00,68.3,63.6,30.03,East,91,3.0,6.0,85,0.00,,,0.00,vanprod-2.5,2013-07-22 14:42:00,
2013-07-22 10:47:00,68.4,63.7,30.04,East,82,4.0,5.0,85,0.00,,,0.00,vanprod-2.5,2013-07-22 14:47:00,
2013-07-22 10:52:00,68.4,63.7,30.04,East,93,5.0,5.0,85,0.00,,,0.00,vanprod-2.5,2013-07-22 14:52:00,
2013-07-22 10:57:00,68.8,64.4,30.04,ESE,118,1.0,3.0,86,0.00,,,0.00,vanprod-2.5,2013-07-22 14:57:00,
2013-07-22 11:02:00,69.6,64.2,30.04,East,89,5.0,5.0,83,0.00,,,0.00,vanprod-2.5,2013-07-22 15:02:00,
2013-07-22 11:07:00,69.9,64.5,30.04,ENE,69,3.0,3.0,83,0.00,,,0.00,vanprod-2.5,2013-07-22 15:07:00,
2013-07-22 11:12:00,69.8,64.1,30.04,ENE,71,4.0,5.0,82,0.00,,,0.00,vanprod-2.5,2013-07-22 15:12:00,
2013-07-22 11:17:00,68.9,63.9,30.04,ENE,74,4.0,5.0,84,0.00,,,0.00,vanprod-2.5,2013-07-22 15:17:00,
2013-07-22 11:22:00,69.1,64.1,30.04,East,90,4.0,5.0,84,0.00,,,0.00,vanprod-2.5,2013-07-22 15:22:00,
2013-07-22 11:27:00,68.8,64.1,30.04,ENE,76,2.0,2.0,85,0.00,,,0.00,vanprod-2.5,2013-07-22 15:27:00,
2013-07-22 11:32:00,69.3,64.3,30.04,ENE,78,1.0,2.0,84,0.00,,,0.00,vanprod-2.5,2013-07-22 15:32:00,
2013-07-22 11:37:00,68.5,63.5,30.03,East,93,2.0,4.0,84,0.00,,,0.00,vanprod-2.5,2013-07-22 15:37:00,
2013-07-22 11:42:00,68.4,63.7,30.04,East,86,2.0,3.0,85,0.00,,,0.00,vanprod-2.5,2013-07-22 15:42:00,
2013-07-22 11:47:00,68.1,63.4,30.03,ENE,76,3.0,3.0,85,0.00,,,0.00,vanprod-2.5,2013-07-22 15:47:00,
2013-07-22 11:52:00,68.4,63.4,30.03,East,82,3.0,3.0,84,0.00,,,0.00,vanprod-2.5,2013-07-22 15:52:00,
2013-07-22 11:57:00,68.0,63.7,30.04,ENE,72,3.0,3.0,86,0.00,,,0.00,vanprod-2.5,2013-07-22 15:57:00,
2013-07-22 12:02:00,68.3,63.6,30.04,ENE,62,2.0,5.0,85,0.00,,,0.00,vanprod-2.5,2013-07-22 16:02:00,
2013-07-22 12:07:00,68.4,64.1,30.04,East,87,1.0,1.0,86,0.00,,,0.00,vanprod-2.5,2013-07-22 16:07:00,
2013-07-22 12:12:00,68.8,64.1,30.03,East,95,1.0,1.0,85,0.00,,,0.00,vanprod-2.5,2013-07-22 16:12:00,
2013-07-22 12:17:00,68.7,63.7,30.03,East,83,3.0,3.0,84,0.00,,,0.00,vanprod-2.5,2013-07-22 16:17:00,
2013-07-22 12:22:00,68.1,63.4,30.03,East,93,3.0,3.0,85,0.00,,,0.00,vanprod-2.5,2013-07-22 16:22:00,
2013-07-22 12:27:00,68.0,63.7,30.03,East,90,3.0,3.0,86,0.00,,,0.00,vanprod-2.5,2013-07-22 16:27:00,
2013-07-22 12:32:00,68.2,63.9,30.03,East,90,3.0,4.0,86,0.00,,,0.00,vanprod-2.5,2013-07-22 16:32:00,
2013-07-22 12:37:00,68.6,64.3,30.03,ENE,77,2.0,5.0,86,0.00,,,0.00,vanprod-2.5,2013-07-22 16:37:00,
2013-07-22 12:42:00,68.4,63.7,30.03,East,79,4.0,6.0,85,0.00,,,0.00,vanprod-2.5,2013-07-22 16:42:00,
2013-07-22 12:47:00,68.8,63.4,30.03,East,84,5.0,7.0,83,0.00,,,0.00,vanprod-2.5,2013-07-22 16:47:00,
2013-07-22 12:52:00,68.9,64.2,30.03,ENE,61,1.0,2.0,85,0.00,,,0.00,vanprod-2.5,2013-07-22 16:52:00,
2013-07-22 12:57:00,69.4,63.7,30.02,East,98,3.0,3.0,82,0.00,,,0.00,vanprod-2.5,2013-07-22 16:57:00,
2013-07-22 13:02:00,69.6,63.5,30.02,East,86,6.0,8.0,81,0.00,,,0.00,vanprod-2.5,2013-07-22 17:02:00,
2013-07-22 13:07:00,68.5,63.5,30.02,ENE,78,4.0,4.0,84,0.00,,,0.00,vanprod-2.5,2013-07-22 17:07:00,
2013-07-22 13:12:00,68.7,63.7,30.02,East,88,2.0,3.0,84,0.00,,,0.00,vanprod-2.5,2013-07-22 17:12:00,
2013-07-22 13:17:00,68.5,63.1,30.02,East,83,4.0,5.0,83,0.00,,,0.00,vanprod-2.5,2013-07-22 17:17:00,
2013-07-22 13:22:00,68.8,63.8,30.02,East,84,2.0,5.0,84,0.00,,,0.00,vanprod-2.5,2013-07-22 17:22:00,
2013-07-22 13:27:00,69.2,63.8,30.02,East,85,3.0,4.0,83,0.00,,,0.00,vanprod-2.5,2013-07-22 17:27:00,
2013-07-22 13:32:00,69.7,64.0,30.02,East,85,2.0,3.0,82,0.00,,,0.00,vanprod-2.5,2013-07-22 17:32:00,
2013-07-22 13:33:00,69.7,64.0,30.02,East,87,2.0,2.0,82,0.00,,,0.00,vanprod-2.5,2013-07-22 17:33:00,
2013-07-22 13:38:00,69.9,63.8,30.02,East,84,3.0,4.0,81,0.00,,,0.00,vanprod-2.5,2013-07-22 17:38:00,
2013-07-22 13:43:00,70.7,64.2,30.02,East,79,2.0,3.0,80,0.00,,,0.00,vanprod-2.5,2013-07-22 17:43:00,
2013-07-22 13:48:00,70.9,64.1,30.02,East,96,3.0,6.0,79,0.00,,,0.00,vanprod-2.5,2013-07-22 17:48:00,
2013-07-22 13:53:00,70.9,63.3,30.02,East,90,4.0,4.0,77,0.00,,,0.00,vanprod-2.5,2013-07-22 17:53:00,
2013-07-22 13:58:00,71.3,63.4,30.02,ENE,75,4.0,7.0,76,0.00,,,0.00,vanprod-2.5,2013-07-22 17:58:00,
2013-07-22 14:03:00,70.9,63.3,30.02,East,81,2.0,4.0,77,0.00,,,0.00,vanprod-2.5,2013-07-22 18:03:00,
2013-07-22 14:08:00,71.1,62.8,30.01,East,89,5.0,5.0,75,0.00,,,0.00,vanprod-2.5,2013-07-22 18:08:00,
2013-07-22 14:13:00,71.2,63.3,30.01,ENE,77,3.0,4.0,76,0.00,,,0.00,vanprod-2.5,2013-07-22 18:13:00,
2013-07-22 14:18:00,70.7,62.8,30.01,East,91,3.0,4.0,76,0.00,,,0.00,vanprod-2.5,2013-07-22 18:18:00,
2013-07-22 14:23:00,70.5,62.6,30.01,East,90,4.0,5.0,76,0.00,,,0.00,vanprod-2.5,2013-07-22 18:23:00,
2013-07-22 14:28:00,70.5,62.2,30.01,East,81,4.0,7.0,75,0.00,,,0.00,vanprod-2.5,2013-07-22 18:28:00,
2013-07-22 14:33:00,70.2,62.7,30.01,East,86,2.0,3.0,77,0.00,,,0.00,vanprod-2.5,2013-07-22 18:33:00,
2013-07-22 14:38:00,69.9,62.4,30.01,East,84,3.0,5.0,77,0.00,,,0.00,vanprod-2.5,2013-07-22 18:38:00,
2013-07-22 14:43:00,69.4,62.3,30.00,East,83,3.0,4.0,78,0.00,,,0.00,vanprod-2.5,2013-07-22 18:43:00,
2013-07-22 14:49:00,69.4,62.6,30.00,ENE,77,1.0,1.0,79,0.00,,,0.00,vanprod-2.5,2013-07-22 18:49:00,
2013-07-22 14:54:00,68.9,61.8,30.00,East,82,3.0,3.0,78,0.00,,,0.00,vanprod-2.5,2013-07-22 18:54:00,
2013-07-22 14:59:00,68.2,61.4,30.00,East,81,4.0,4.0,79,0.00,,,0.00,vanprod-2.5,2013-07-22 18:59:00,
2013-07-22 15:04:00,67.7,61.3,30.00,East,87,3.0,5.0,80,0.00,,,0.00,vanprod-2.5,2013-07-22 19:04:00,
2013-07-22 15:09:00,67.5,61.5,30.00,ENE,76,2.0,5.0,81,0.00,,,0.00,vanprod-2.5,2013-07-22 19:09:00,
2013-07-22 15:14:00,67.5,61.5,30.00,East,85,2.0,3.0,81,0.00,,,0.00,vanprod-2.5,2013-07-22 19:14:00,
2013-07-22 15:19:00,67.7,61.7,29.99,East,89,3.0,4.0,81,0.00,,,0.00,vanprod-2.5,2013-07-22 19:19:00,
2013-07-22 15:25:00,67.6,61.6,29.99,ENE,75,2.0,3.0,81,0.00,,,0.00,vanprod-2.5,2013-07-22 19:25:00,
2013-07-22 15:30:00,67.9,61.9,29.99,East,82,1.0,2.0,81,0.00,,,0.00,vanprod-2.5,2013-07-22 19:30:00,
2013-07-22 15:35:00,68.3,62.3,29.99,ENE,69,3.0,4.0,81,0.00,,,0.00,vanprod-2.5,2013-07-22 19:35:00,
2013-07-22 15:40:00,68.2,62.2,30.00,ENE,59,2.0,2.0,81,0.00,,,0.00,vanprod-2.5,2013-07-22 19:40:00,
2013-07-22 15:45:00,68.0,62.0,29.99,East,81,4.0,6.0,81,0.00,,,0.00,vanprod-2.5,2013-07-22 19:45:00,
2013-07-22 15:50:00,68.5,62.8,29.99,East,80,4.0,4.0,82,0.00,,,0.00,vanprod-2.5,2013-07-22 19:50:00,
2013-07-22 15:55:00,69.4,63.0,29.99,East,90,5.0,5.0,80,0.00,,,0.00,vanprod-2.5,2013-07-22 19:55:00,
2013-07-22 16:00:00,69.5,62.7,29.99,East,91,5.0,5.0,79,0.00,,,0.00,vanprod-2.5,2013-07-22 20:00:00,
2013-07-22 16:05:00,69.6,63.2,29.99,East,97,4.0,7.0,80,0.00,,,0.00,vanprod-2.5,2013-07-22 20:05:00,
2013-07-22 16:10:00,69.6,62.8,29.99,East,81,5.0,6.0,79,0.00,,,0.00,vanprod-2.5,2013-07-22 20:10:00,
2013-07-22 16:15:00,69.3,62.9,29.99,ENE,77,5.0,7.0,80,0.00,,,0.00,vanprod-2.5,2013-07-22 20:15:00,
2013-07-22 16:17:00,69.3,62.5,29.99,East,94,5.0,8.0,79,0.00,,,0.00,vanprod-2.5,2013-07-22 20:17:00,
2013-07-22 16:22:00,69.7,63.3,29.99,East,90,4.0,5.0,80,0.00,,,0.00,vanprod-2.5,2013-07-22 20:22:00,
2013-07-22 16:27:00,71.0,63.8,29.99,East,86,3.0,4.0,78,0.00,,,0.00,vanprod-2.5,2013-07-22 20:27:00,
2013-07-22 16:32:00,71.8,63.8,29.98,East,87,4.0,6.0,76,0.00,,,0.00,vanprod-2.5,2013-07-22 20:32:00,
2013-07-22 16:37:00,70.4,62.9,29.98,East,84,5.0,7.0,77,0.00,,,0.00,vanprod-2.5,2013-07-22 20:37:00,
2013-07-22 16:42:00,69.8,63.0,29.98,East,90,5.0,6.0,79,0.00,,,0.00,vanprod-2.5,2013-07-22 20:42:00,
2013-07-22 16:43:00,69.8,62.6,29.98,East,89,5.0,6.0,78,0.00,,,0.00,vanprod-2.5,2013-07-22 20:43:00,
2013-07-22 16:48:00,69.5,62.7,29.98,East,97,5.0,6.0,79,0.00,,,0.00,vanprod-2.5,2013-07-22 20:48:00,
2013-07-22 16:53:00,69.3,62.5,29.98,East,83,5.0,8.0,79,0.00,,,0.00,vanprod-2.5,2013-07-22 20:53:00,
2013-07-22 16:58:00,69.6,62.8,29.98,ENE,74,4.0,5.0,79,0.00,,,0.00,vanprod-2.5,2013-07-22 20:58:00,
2013-07-22 17:03:00,69.6,62.8,29.98,ENE,72,3.0,3.0,79,0.00,,,0.00,vanprod-2.5,2013-07-22 21:03:00,
2013-07-22 17:08:00,70.7,63.5,29.98,ENE,72,2.0,5.0,78,0.00,,,0.00,vanprod-2.5,2013-07-22 21:08:00,
2013-07-22 17:13:00,70.7,63.5,29.98,ENE,77,3.0,5.0,78,0.00,,,0.00,vanprod-2.5,2013-07-22 21:13:00,
2013-07-22 17:18:00,70.6,63.4,29.98,ENE,71,2.0,2.0,78,0.00,,,0.00,vanprod-2.5,2013-07-22 21:18:00,
2013-07-22 17:23:00,71.3,63.4,29.98,ENE,69,2.0,2.0,76,0.00,,,0.00,vanprod-2.5,2013-07-22 21:23:00,
2013-07-22 17:28:00,71.2,63.6,29.98,NE,55,2.0,3.0,77,0.00,,,0.00,vanprod-2.5,2013-07-22 21:28:00,
2013-07-22 17:33:00,71.2,63.3,29.98,ENE,75,4.0,4.0,76,0.00,,,0.00,vanprod-2.5,2013-07-22 21:33:00,
2013-07-22 17:38:00,70.0,62.8,29.98,East,91,3.0,3.0,78,0.00,,,0.00,vanprod-2.5,2013-07-22 21:38:00,
2013-07-22 17:43:00,68.9,62.5,29.97,East,79,4.0,7.0,80,0.00,,,0.00,vanprod-2.5,2013-07-22 21:43:00,
2013-07-22 17:48:00,68.9,62.5,29.97,ENE,77,4.0,4.0,80,0.00,,,0.00,vanprod-2.5,2013-07-22 21:48:00,
2013-07-22 17:53:00,68.3,62.6,29.97,ENE,78,4.0,6.0,82,0.00,,,0.00,vanprod-2.5,2013-07-22 21:53:00,
2013-07-22 17:58:00,68.3,62.3,29.96,East,85,5.0,5.0,81,0.00,,,0.00,vanprod-2.5,2013-07-22 21:58:00,
2013-07-22 18:03:00,67.8,62.1,29.97,East,84,4.0,5.0,82,0.00,,,0.00,vanprod-2.5,2013-07-22 22:03:00,
2013-07-22 18:08:00,68.1,62.4,29.97,East,89,4.0,4.0,82,0.00,,,0.00,vanprod-2.5,2013-07-22 22:08:00,
2013-07-22 18:13:00,67.7,62.4,29.97,East,87,4.0,6.0,83,0.00,,,0.00,vanprod-2.5,2013-07-22 22:13:00,
2013-07-22 18:18:00,67.8,62.1,29.97,East,88,5.0,5.0,82,0.00,,,0.00,vanprod-2.5,2013-07-22 22:18:00,
2013-07-22 18:23:00,67.7,62.4,29.97,ENE,77,2.0,2.0,83,0.00,,,0.00,vanprod-2.5,2013-07-22 22:23:00,
2013-07-22 18:28:00,68.1,62.7,29.97,ENE,65,2.0,4.0,83,0.00,,,0.00,vanprod-2.5,2013-07-22 22:28:00,
2013-07-22 18:33:00,68.1,62.4,29.96,ENE,69,3.0,3.0,82,0.00,,,0.00,vanprod-2.5,2013-07-22 22:33:00,
2013-07-22 18:38:00,67.6,62.3,29.96,ENE,76,4.0,5.0,83,0.00,,,0.00,vanprod-2.5,2013-07-22 22:38:00,
2013-07-22 18:43:00,67.4,62.1,29.96,East,83,4.0,4.0,83,0.00,,,0.00,vanprod-2.5,2013-07-22 22:43:00,
2013-07-22 18:48:00,67.6,62.6,29.96,East,82,1.0,1.0,84,0.00,,,0.00,vanprod-2.5,2013-07-22 22:48:00,
2013-07-22 18:53:00,67.9,62.6,29.96,NE,56,2.0,2.0,83,0.00,,,0.00,vanprod-2.5,2013-07-22 22:53:00,
2013-07-22 18:58:00,67.9,62.6,29.96,ENE,78,3.0,5.0,83,0.00,,,0.00,vanprod-2.5,2013-07-22 22:58:00,
2013-07-22 19:03:00,67.6,62.6,29.96,East,88,2.0,2.0,84,0.00,,,0.00,vanprod-2.5,2013-07-22 23:03:00,
2013-07-22 19:08:00,67.1,62.4,29.96,East,82,2.0,2.0,85,0.00,,,0.00,vanprod-2.5,2013-07-22 23:08:00,
2013-07-22 19:13:00,66.3,62.0,29.96,ENE,78,2.0,3.0,86,0.00,,,0.00,vanprod-2.5,2013-07-22 23:13:00,
2013-07-22 19:18:00,65.8,61.8,29.96,ENE,69,2.0,2.0,87,0.00,,,0.00,vanprod-2.5,2013-07-22 23:18:00,
2013-07-22 19:23:00,65.6,61.6,29.96,East,88,2.0,4.0,87,0.00,,,0.00,vanprod-2.5,2013-07-22 23:23:00,
2013-07-22 19:28:00,65.1,61.5,29.96,East,84,3.0,5.0,88,0.00,,,0.00,vanprod-2.5,2013-07-22 23:28:00,
2013-07-22 19:33:00,64.8,61.5,29.95,East,87,3.0,5.0,89,0.00,,,0.00,vanprod-2.5,2013-07-22 23:33:00,
2013-07-22 19:38:00,64.8,61.5,29.95,NE,55,2.0,3.0,89,0.00,,,0.00,vanprod-2.5,2013-07-22 23:38:00,
2013-07-22 19:43:00,64.7,61.4,29.95,East,79,2.0,2.0,89,0.00,,,0.00,vanprod-2.5,2013-07-22 23:43:00,
2013-07-22 19:48:00,64.6,61.3,29.95,ENE,72,3.0,5.0,89,0.00,,,0.00,vanprod-2.5,2013-07-22 23:48:00,
2013-07-22 19:53:00,64.5,61.5,29.95,East,85,2.0,4.0,90,0.00,,,0.00,vanprod-2.5,2013-07-22 23:53:00,
2013-07-22 19:58:00,64.3,61.3,29.95,ENE,72,2.0,4.0,90,0.00,,,0.00,vanprod-2.5,2013-07-22 23:58:00,
2013-07-22 20:03:00,64.2,61.2,29.95,ENE,78,3.0,5.0,90,0.00,,,0.00,vanprod-2.5,2013-07-23 00:03:00,
2013-07-22 20:08:00,64.1,61.1,29.95,East,89,1.0,3.0,90,0.00,,,0.00,vanprod-2.5,2013-07-23 00:08:00,
2013-07-22 20:13:00,63.9,60.9,29.95,ENE,75,2.0,3.0,90,0.00,,,0.00,vanprod-2.5,2013-07-23 00:13:00,
2013-07-22 20:18:00,63.8,61.1,29.95,East,81,1.0,3.0,91,0.00,,,0.00,vanprod-2.5,2013-07-23 00:18:00,
2013-07-22 20:23:00,63.7,61.0,29.95,ENE,65,1.0,4.0,91,0.00,,,0.00,vanprod-2.5,2013-07-23 00:23:00,
2013-07-22 20:28:00,63.6,60.9,29.94,NE,40,1.0,2.0,91,0.00,,,0.00,vanprod-2.5,2013-07-23 00:28:00,
2013-07-22 20:33:00,63.4,60.7,29.95,East,80,2.0,2.0,91,0.00,,,0.00,vanprod-2.5,2013-07-23 00:33:00,
2013-07-22 20:38:00,63.4,61.0,29.95,ENE,65,1.0,1.0,92,0.00,,,0.00,vanprod-2.5,2013-07-23 00:38:00,
2013-07-22 20:43:00,63.3,60.9,29.95,NE,55,2.0,2.0,92,0.00,,,0.00,vanprod-2.5,2013-07-23 00:43:00,
2013-07-22 20:48:00,63.2,60.8,29.94,NE,56,2.0,4.0,92,0.00,,,0.00,vanprod-2.5,2013-07-23 00:48:00,
2013-07-22 20:53:00,63.1,60.7,29.94,ENE,69,1.0,2.0,92,0.00,,,0.00,vanprod-2.5,2013-07-23 00:53:00,
2013-07-22 20:58:00,63.0,60.9,29.94,ENE,76,1.0,1.0,93,0.00,,,0.00,vanprod-2.5,2013-07-23 00:58:00,
2013-07-22 21:03:00,63.0,60.9,29.95,NE,56,1.0,2.0,93,0.00,,,0.00,vanprod-2.5,2013-07-23 01:03:00,
2013-07-22 21:08:00,62.9,60.8,29.95,East,90,1.0,1.0,93,0.00,,,0.00,vanprod-2.5,2013-07-23 01:08:00,
2013-07-22 21:13:00,62.9,60.8,29.95,ENE,65,2.0,3.0,93,0.00,,,0.00,vanprod-2.5,2013-07-23 01:13:00,
2013-07-22 21:18:00,63.0,60.9,29.95,ENE,71,2.0,3.0,93,0.00,,,0.00,vanprod-2.5,2013-07-23 01:18:00,
2013-07-22 21:23:00,62.9,60.8,29.95,ENE,70,1.0,1.0,93,0.00,,,0.00,vanprod-2.5,2013-07-23 01:23:00,
2013-07-22 21:28:00,62.9,60.8,29.94,East,85,1.0,2.0,93,0.00,,,0.00,vanprod-2.5,2013-07-23 01:28:00,
2013-07-22 21:33:00,62.9,60.8,29.95,ENE,74,1.0,1.0,93,0.00,,,0.00,vanprod-2.5,2013-07-23 01:33:00,
2013-07-22 21:38:00,62.9,60.8,29.95,NE,45,1.0,2.0,93,0.00,,,0.00,vanprod-2.5,2013-07-23 01:38:00,
2013-07-22 21:43:00,62.9,60.8,29.95,NE,53,0.0,1.0,93,0.00,,,0.00,vanprod-2.5,2013-07-23 01:43:00,
2013-07-22 21:48:00,62.8,60.8,29.95,ENE,66,0.0,2.0,93,0.00,,,0.00,vanprod-2.5,2013-07-23 01:48:00,
2013-07-22 21:53:00,62.8,60.8,29.95,NE,52,1.0,2.0,93,0.00,,,0.00,vanprod-2.5,2013-07-23 01:53:00,
2013-07-22 21:58:00,62.8,60.8,29.95,NE,56,1.0,1.0,93,0.00,,,0.00,vanprod-2.5,2013-07-23 01:58:00,
2013-07-22 22:03:00,62.7,60.7,29.95,ENE,74,1.0,1.0,93,0.00,,,0.00,vanprod-2.5,2013-07-23 02:03:00,
2013-07-22 22:08:00,62.7,61.0,29.95,ENE,67,1.0,2.0,94,0.00,,,0.00,vanprod-2.5,2013-07-23 02:08:00,
2013-07-22 22:13:00,62.8,60.8,29.95,East,88,1.0,1.0,93,0.00,,,0.00,vanprod-2.5,2013-07-23 02:13:00,
2013-07-22 22:18:00,62.8,60.8,29.94,NE,54,1.0,1.0,93,0.00,,,0.00,vanprod-2.5,2013-07-23 02:18:00,
2013-07-22 22:23:00,62.8,60.8,29.94,NE,56,1.0,2.0,93,0.00,,,0.00,vanprod-2.5,2013-07-23 02:23:00,
2013-07-22 22:28:00,62.7,60.7,29.94,East,93,1.0,1.0,93,0.00,,,0.00,vanprod-2.5,2013-07-23 02:28:00,
2013-07-22 22:33:00,62.8,61.1,29.94,ENE,71,2.0,2.0,94,0.00,,,0.00,vanprod-2.5,2013-07-23 02:33:00,
2013-07-22 22:38:00,62.8,60.8,29.94,ENE,63,1.0,4.0,93,0.00,,,0.00,vanprod-2.5,2013-07-23 02:38:00,
2013-07-22 22:43:00,62.9,60.8,29.94,ENE,64,1.0,3.0,93,0.00,,,0.00,vanprod-2.5,2013-07-23 02:43:00,
2013-07-22 22:48:00,62.9,60.8,29.94,ENE,66,2.0,3.0,93,0.00,,,0.00,vanprod-2.5,2013-07-23 02:48:00,
2013-07-22 22:53:00,62.9,60.8,29.94,NE,45,1.0,2.0,93,0.00,,,0.00,vanprod-2.5,2013-07-23 02:53:00,
2013-07-22 22:58:00,62.9,60.8,29.94,NE,50,2.0,3.0,93,0.00,,,0.00,vanprod-2.5,2013-07-23 02:58:00,
2013-07-22 23:03:00,62.9,60.8,29.94,NE,37,2.0,2.0,93,0.00,,,0.00,vanprod-2.5,2013-07-23 03:03:00,
2013-07-22 23:08:00,63.0,60.9,29.93,ENE,77,3.0,3.0,93,0.00,,,0.00,vanprod-2.5,2013-07-23 03:08:00,
2013-07-22 23:13:00,63.2,61.1,29.93,ENE,76,2.0,2.0,93,0.00,,,0.00,vanprod-2.5,2013-07-23 03:13:00,
2013-07-22 23:18:00,63.4,61.3,29.93,East,85,1.0,3.0,93,0.00,,,0.00,vanprod-2.5,2013-07-23 03:18:00,
2013-07-22 23:23:00,63.5,61.1,29.93,ENE,61,3.0,4.0,92,0.00,,,0.00,vanprod-2.5,2013-07-23 03:23:00,
2013-07-22 23:28:00,63.5,61.1,29.92,ENE,70,3.0,3.0,92,0.00,,,0.00,vanprod-2.5,2013-07-23 03:28:00,
2013-07-22 23:33:00,63.6,61.2,29.93,ENE,69,2.0,2.0,92,0.00,,,0.00,vanprod-2.5,2013-07-23 03:33:00,
2013-07-22 23:38:00,63.7,61.3,29.92,ENE,63,2.0,3.0,92,0.00,,,0.00,vanprod-2.5,2013-07-23 03:38:00,
2013-07-22 23:43:00,63.7,61.3,29.92,NE,34,1.0,1.0,92,0.00,,,0.00,vanprod-2.5,2013-07-23 03:43:00,
2013-07-22 23:48:00,63.7,61.3,29.92,ENE,57,2.0,2.0,92,0.00,,,0.00,vanprod-2.5,2013-07-23 03:48:00,
2013-07-22 23:53:00,63.7,61.3,29.91,NE,52,1.0,4.0,92,0.00,,,0.00,vanprod-2.5,2013-07-23 03:53:00,
2013-07-22 23:58:00,63.8,61.4,29.91,NE,43,1.0,2.0,92,0.00,,,0.00,vanprod-2.5,2013-07-23 03:58:00,